Regional Weather Roundup
Issued by NWS

Home | Current Version | Previous Version | Graphics & Text | Print | Product List | Glossary On
Versions: 1 2 3 4 5 6 7 8 9 10 11 12 13 14 15 16 17 18 19 20 21 22 23 24 25 26 27 28 29 30 31 32 33 34 35 36 37 38 39 40 41 42 43 44 45 46 47 48 49 50
825
ASUS43 KOAX 311302
RWRNE

WEATHER ROUNDUP FOR NEBRASKA
NATIONAL WEATHER SERVICE OMAHA NE
800 AM CDT WED AUG 31 2016

NOTES: SATELLITE DATA IS BEING USED TO AUGMENT CLOUD COVER ABOVE
       12000 FEET.
       "FAIR" INDICATES FEW OR NO CLOUDS BELOW 12,000 FEET WITH NO
       SIGNIFICANT WEATHER AND/OR OBSTRUCTIONS TO VISIBILITY.

  * THESE STATIONS DO NOT REPORT WEATHER SUCH AS RAIN...SNOW OR FOG.

NEZ001>004-019>022-054>056-311400-
NEBRASKA PANHANDLE

CITY           SKY/WX    TMP DP  RH WIND       PRES   REMARKS
SCOTTSBLUFF    CLOUDY    59  57  93 CALM      30.27R
ALLIANCE       CLOUDY    61  61 100 S6        30.26R FOG
CHADRON        CLEAR     57  54  89 CALM      30.22R
SIDNEY         CLOUDY    62  61  96 SE8       30.28R FOG
$$

NEZ057>060-069>072-079>082-311400-
SOUTHWEST NEBRASKA

CITY           SKY/WX    TMP DP  RH WIND       PRES   REMARKS
NORTH PLATTE   FOG       63  62  97 CALM      30.24R VSB 1/4
IMPERIAL       CLOUDY    65  64  97 NE5       30.24S FOG
LEXINGTON      CLOUDY    65  64  96 E5        30.22R FOG
MCCOOK         CLOUDY    66  64  93 E5        30.22R FOG
OGALLALA       RAIN      66  65  96 E5        30.24F
$$

NEZ005>010-023>029-035>040-094-311400-
NORTH CENTRAL NEBRASKA

CITY           SKY/WX    TMP DP  RH WIND       PRES   REMARKS
VALENTINE      CLEAR     59  57  93 CALM      30.23R
AINSWORTH      CLEAR     56  56 100 CALM      30.24S
BROKEN BOW     FOG       64  64 100 CALM      30.23S VSB<1/4
O`NEILL        FOG       63  62  96 CALM      30.24S VSB<1/4
ORD            FOG       63  62  97 CALM      30.21S VSB<1/4
THEDFORD       FOG       57  57  99 CALM      30.26R VSB<1/4
$$

NEZ041-046>049-061>064-073>077-083>087-311400-
SOUTH CENTRAL NEBRASKA

CITY           SKY/WX    TMP DP  RH WIND       PRES   REMARKS
GRAND ISLAND   FOG       66  66 100 NE6       30.21R VSB 1/4
AURORA         CLOUDY    67  67 100 NE3       30.20S FOG
HASTINGS       CLOUDY    68  66  93 E5        30.21S FOG
HEBRON         CLOUDY    69  68  96 NE3       30.18R FOG
HOLDREGE       CLOUDY    67  65  96 NE5       30.21S FOG
KEARNEY *      CLOUDY    66  64  94 E7        30.21R
YORK           CLOUDY    66  66 100 NE6       30.20S FOG
$$

NEZ011>018-030>034-042>045-311400-
NORTHEAST NEBRASKA

CITY           SKY/WX    TMP DP  RH WIND       PRES   REMARKS
NORFOLK        FOG       66  65  96 E7        30.22S VSB 1/2
ALBION         FOG       65  63  94 CALM      30.22S VSB<1/4
BLAIR          MOSUNNY   66  64  91 N7        30.19S FOG
FREMONT        PTSUNNY   66  65  95 CALM      30.20R
TEKAMAH        FOG       62  61  96 N6        30.20R VSB 1/2
WAYNE          FOG       65  64  99 NE3       30.23S VSB<1/4
$$

NEZ050>053-065>068-078-088>093-311400-
SOUTHEAST NEBRASKA

CITY           SKY/WX    TMP DP  RH WIND       PRES   REMARKS
LINCOLN        PTSUNNY   71  69  93 NE6       30.18S
OMAHA EPPLEY   PTSUNNY   67  63  87 N3        30.18R
BEATRICE       CLOUDY    69  69  98 NE6       30.17R FOG
FALLS CITY     CLOUDY    71  69  93 N6        30.14R
NEBRASKA CITY  CLOUDY    68  68 100 NE6       30.17R
PLATTSMOUTH    PTSUNNY   67  64  90 N3        30.18S
$$

NEZ044-045-051>053-067-311400-
OMAHA AREA

CITY           SKY/WX    TMP DP  RH WIND       PRES   REMARKS
OMAHA EPPLEY   PTSUNNY   67  63  87 N3        30.18R
BLAIR          MOSUNNY   66  64  91 N7        30.19S FOG
FREMONT        PTSUNNY   66  65  95 CALM      30.20R
MILLARD        CLOUDY   N/A N/A N/A CALM      30.18S
OFFUTT AFB     MOSUNNY   68  65  91 N6        30.17R
PLATTSMOUTH    PTSUNNY   67  64  90 N3        30.18S
WAHOO          FAIR      68  66  94 NE3       30.19S
$$




USA.gov is the U.S. government's official web portal to all federal, state and local government web resources and services.